sat.trackr.live / text

‹ back to catalog

TRANSPORTER-17 OBJECT BE

NORAD 69921 · 2026-156BE

PAYLOAD ACTIVE UNKNOWN

§ Identity

Operator
Country
TBD
Launch date
2026-07-07
Launch site
AFWTR
Launch vehicle
Mass (kg)
RCS (m²)

External: N2YO · Heavens-Above · Gunter

§ Orbital elements

Epoch: 2026-09-20T04:25:06.463776Z

Period
96.50 min
Inclination
97.7462°
Eccentricity
0.0005062
Mean motion
14.92268118 rev/d
Perigee alt
587.3 km
Apogee alt
594.4 km
Semi-major
6,969.0 km
B*
2.1879e-4
RAAN
162.4307°
Arg perigee
272.8822°
Mean anomaly
87.1818°
Rev number
1,116

§ Raw data

TRANSPORTER-17 OBJECT BE1 69921U 26156BE  26263.18410259  .00002177  00000+0  21879-3 0  99922 69921  97.7462 162.4307 0005062 272.8822  87.1818 14.92268118 11165

JSON: /api/v1/satellites/69921 · /tle

For live sub-satellite position, see the globe view (requires WebGL).

§ Visibility from observer

Set your observer location to see the next 7 days of passes ≥ 10°. The values pass through the URL so the page stays shareable.

No JS? Fill the form by hand. The geolocation button needs JavaScript.